Erie, CO

9:08 AM MDT on April 29, 2017 (GMT -0600)
Erie Municipal Airport

Weather History for KEIK - February, 2012

Change the Weather History Date:

Tuesday, February 28, 2012

  Actual Average (KBJC) Record (KBJC)
Temperature  
Mean Temperature 32 °F -  
Max Temperature 44 °F 42 °F 80 °F (2006)
Min Temperature 23 °F 23 °F 3 °F (2015)
Degree Days  
Heating Degree Days 32    
Moisture  
Dew Point 25 °F    
Average Humidity 78    
Maximum Humidity 93    
Minimum Humidity 34    
Precipitation  
Precipitation 0.00 in - - ()
Sea Level Pressure  
Sea Level Pressure 29.57 in    
Wind  
Wind Speed 2 mph (North)    
Max Wind Speed 14 mph    
Max Gust Speed -    
Visibility 10 miles    
Events      
Averages and records for this station are not official NWS values.
T = Trace of Precipitation, MM = Missing Value Source: NWS Daily Summary

Daily Weather History Graph

Daily Weather History Graph

Search for Another Location

Airport or City:

Trip Planner

Search our weather history database for the weather conditions in past years. The results will help you decide how hot, cold, wet, or windy it might be!

Date:

Astronomy

Feb. 28, 2012 Rise Set
Actual Time 6:35 AM MST 5:50 PM MST
Civil Twilight 6:08 AM MST 6:17 PM MST
Nautical Twilight 5:37 AM MST 6:49 PM MST
Astronomical Twilight 5:05 AM MST 7:20 PM MST
Moon 9:45 AM MST (2/28) No Moon Set
Length of Visible Light 12h 09m
Length of Day
11h 14m
Waxing Crescent, 38% of the Moon is Illuminated
Feb 28
Waxing Crescent
Feb 29
First Quarter
Mar 8
Full
Mar 14
Last Quarter
Mar 22
New

Hourly Weather History & Observations

Time (MST) Temp. Windchill Dew Point Humidity Pressure Visibility Wind Dir Wind Speed Gust Speed Precip Events Conditions
12:17 AM 26.6 °F - 21.2 °F 80% 29.75 in 10.0 mi Calm Calm - N/A   Unknown
12:37 AM 26.6 °F - 21.2 °F 80% 29.74 in 10.0 mi Calm Calm - N/A   Unknown
12:57 AM 26.6 °F - 21.2 °F 80% 29.73 in 10.0 mi Calm Calm - N/A   Unknown
1:17 AM 26.6 °F - 21.2 °F 80% 29.72 in 10.0 mi Calm Calm - N/A   Unknown
1:37 AM 24.8 °F - 21.2 °F 86% 29.71 in 10.0 mi Calm Calm - N/A   Unknown
1:57 AM 26.6 °F - 21.2 °F 80% 29.70 in 10.0 mi Calm Calm - N/A   Unknown
2:17 AM 24.8 °F - 21.2 °F 86% 29.69 in 10.0 mi Calm Calm - N/A   Unknown
2:37 AM 23.0 °F - 21.2 °F 93% 29.66 in 10.0 mi Calm Calm - N/A   Unknown
2:57 AM 23.0 °F 18.4 °F 21.2 °F 93% 29.65 in 10.0 mi West 3.5 mph - N/A   Unknown
3:17 AM 24.8 °F - 21.2 °F 86% 29.65 in 10.0 mi Calm Calm - N/A   Unknown
3:37 AM 23.0 °F - 21.2 °F 93% 29.63 in 10.0 mi Calm Calm - N/A   Unknown
3:57 AM 23.0 °F - 21.2 °F 93% 29.62 in 10.0 mi Calm Calm - N/A   Unknown
4:17 AM 23.0 °F - 21.2 °F 93% 29.61 in 10.0 mi Calm Calm - N/A   Unknown
4:37 AM 23.0 °F 18.4 °F 21.2 °F 93% 29.59 in 10.0 mi SSW 3.5 mph - N/A   Unknown
4:57 AM 23.0 °F - 21.2 °F 93% 29.59 in 10.0 mi Calm Calm - N/A   Unknown
5:17 AM 23.0 °F 18.4 °F 21.2 °F 93% 29.58 in 10.0 mi West 3.5 mph - N/A   Unknown
5:37 AM 23.0 °F - 21.2 °F 93% 29.57 in 10.0 mi Calm Calm - N/A   Unknown
5:57 AM 24.8 °F 19.1 °F 23.0 °F 93% 29.56 in 10.0 mi WNW 4.6 mph - N/A   Unknown
6:17 AM 26.6 °F 22.6 °F 23.0 °F 86% 29.56 in 10.0 mi North 3.5 mph - N/A   Unknown
6:37 AM 26.6 °F 22.6 °F 23.0 °F 86% 29.55 in 10.0 mi NNW 3.5 mph - N/A   Unknown
6:57 AM 26.6 °F - 23.0 °F 86% 29.54 in 10.0 mi Calm Calm - N/A   Unknown
7:17 AM 28.4 °F - 26.6 °F 93% 29.54 in 10.0 mi Calm Calm - N/A   Unknown
7:37 AM 28.4 °F 24.6 °F 26.6 °F 93% 29.54 in 10.0 mi North 3.5 mph - N/A   Unknown
7:57 AM 30.2 °F 23.4 °F 26.6 °F 86% 29.55 in 10.0 mi North 6.9 mph - N/A   Unknown
8:17 AM 30.2 °F 24.3 °F 26.6 °F 86% 29.56 in 10.0 mi NW 5.8 mph - N/A   Unknown
8:37 AM 30.2 °F 21.9 °F 26.6 °F 86% 29.56 in 10.0 mi NNE 9.2 mph - N/A   Unknown
8:57 AM 32.0 °F - 26.6 °F 80% 29.54 in 10.0 mi Calm Calm - N/A   Unknown
9:17 AM 32.0 °F 24.8 °F 28.4 °F 87% 29.52 in 10.0 mi NNE 8.1 mph - N/A   Unknown
9:37 AM 32.0 °F 24.8 °F 28.4 °F 87% 29.51 in 10.0 mi East 8.1 mph - N/A   Unknown
9:57 AM 32.0 °F - 28.4 °F 87% 29.53 in 10.0 mi Calm Calm - N/A   Unknown
10:17 AM 33.8 °F 29.6 °F 28.4 °F 81% 29.54 in 10.0 mi South 4.6 mph - N/A   Unknown
10:37 AM 35.6 °F 32.8 °F 26.6 °F 70% 29.53 in 10.0 mi SE 3.5 mph - N/A   Unknown
10:57 AM 35.6 °F - 26.6 °F 70% 29.51 in 10.0 mi Calm Calm - N/A   Unknown
11:17 AM 35.6 °F 28.6 °F 28.4 °F 75% 29.52 in 10.0 mi North 9.2 mph - N/A   Unknown
11:37 AM 35.6 °F 31.7 °F 28.4 °F 75% 29.52 in 10.0 mi NNW 4.6 mph - N/A   Unknown
11:57 AM 37.4 °F 33.8 °F 28.4 °F 70% 29.51 in 10.0 mi NNE 4.6 mph - N/A   Unknown
12:17 PM 37.4 °F - 30.2 °F 75% 29.50 in 10.0 mi Calm Calm - N/A   Unknown
12:37 PM 37.4 °F 32.8 °F 30.2 °F 75% 29.50 in 10.0 mi North 5.8 mph - N/A   Unknown
12:57 PM 37.4 °F 32.1 °F 30.2 °F 75% 29.49 in 10.0 mi NE 6.9 mph - N/A   Unknown
1:17 PM 37.4 °F 32.1 °F 30.2 °F 75% 29.49 in 10.0 mi NNE 6.9 mph - N/A   Unknown
1:37 PM 37.4 °F 32.1 °F 30.2 °F 75% 29.49 in 10.0 mi NE 6.9 mph - N/A   Unknown
1:57 PM 41.0 °F 34.7 °F 30.2 °F 65% 29.49 in 10.0 mi East 10.4 mph - N/A   Unknown
2:17 PM 41.0 °F 38.0 °F 30.2 °F 65% 29.52 in 10.0 mi NNE 4.6 mph - N/A   Unknown
2:37 PM 37.4 °F 28.9 °F 30.2 °F 75% 29.56 in 10.0 mi NW 13.8 mph - N/A   Unknown
2:57 PM 37.4 °F - 30.2 °F 75% 29.54 in 10.0 mi Calm Calm - N/A   Unknown
3:16 PM 37.4 °F 32.1 °F 30.2 °F 75% 29.54 in 10.0 mi South 6.9 mph - N/A   Unknown
3:36 PM 41.0 °F 35.2 °F 28.4 °F 61% 29.54 in 10.0 mi South 9.2 mph - N/A   Unknown
3:56 PM 41.0 °F 37.1 °F 24.8 °F 53% 29.54 in 10.0 mi SSW 5.8 mph - N/A   Unknown
4:16 PM 42.8 °F - 21.2 °F 42% 29.55 in 10.0 mi Calm Calm - N/A   Unknown
4:36 PM 42.8 °F 41.1 °F 23.0 °F 46% 29.57 in 10.0 mi ESE 3.5 mph - N/A   Unknown
4:56 PM 42.8 °F - 21.2 °F 42% 29.58 in 10.0 mi Calm Calm - N/A   Unknown
5:16 PM 44.6 °F 42.2 °F 17.6 °F 34% 29.60 in 10.0 mi South 4.6 mph - N/A   Unknown
5:36 PM 42.8 °F 40.1 °F 19.4 °F 39% 29.62 in 10.0 mi SW 4.6 mph - N/A   Unknown
5:56 PM 42.8 °F 35.4 °F 6.8 °F 23% 29.62 in 10.0 mi WNW 15.0 mph 31.1 mph N/A   Unknown
6:16 PM 37.4 °F 29.8 °F 12.2 °F 36% 29.64 in 10.0 mi NW 11.5 mph - N/A   Unknown
6:36 PM 39.2 °F 31.6 °F 12.2 °F 33% 29.66 in 10.0 mi WNW 12.7 mph - N/A   Unknown
6:56 PM 37.4 °F 32.1 °F 12.2 °F 36% 29.68 in 10.0 mi NW 6.9 mph 17.3 mph N/A   Unknown
7:16 PM 37.4 °F 28.9 °F 12.2 °F 36% 29.68 in 10.0 mi WNW 13.8 mph 19.6 mph N/A   Unknown
7:36 PM 39.2 °F 30.2 °F 14.0 °F 36% 29.69 in 10.0 mi WNW 17.3 mph 26.5 mph N/A   Unknown
7:56 PM 37.4 °F 30.8 °F 14.0 °F 38% 29.69 in 10.0 mi West 9.2 mph 18.4 mph N/A   Unknown
8:16 PM 35.6 °F 28.0 °F 14.0 °F 41% 29.70 in 10.0 mi West 10.4 mph - N/A   Unknown
8:36 PM 37.4 °F 32.1 °F 14.0 °F 38% 29.72 in 10.0 mi SW 6.9 mph - N/A   Unknown
8:56 PM 35.6 °F 28.0 °F 19.4 °F 52% 29.73 in 10.0 mi SW 10.4 mph - N/A   Unknown
9:16 PM 35.6 °F 28.0 °F 19.4 °F 52% 29.75 in 10.0 mi WSW 10.4 mph - N/A   Unknown
9:36 PM 35.6 °F 31.7 °F 17.6 °F 48% 29.75 in 10.0 mi WSW 4.6 mph - N/A   Unknown
9:56 PM 35.6 °F - 17.6 °F 48% 29.76 in 10.0 mi Calm Calm - N/A   Unknown
10:16 PM 35.6 °F 30.7 °F 12.2 °F 38% 29.76 in 10.0 mi West 5.8 mph 20.7 mph N/A   Unknown
10:56 PM 37.4 °F 34.9 °F 10.4 °F 33% 29.78 in 10.0 mi NW 3.5 mph - N/A   Unknown
11:16 PM 35.6 °F 24.8 °F 8.6 °F 33% 29.79 in 10.0 mi West 19.6 mph 28.8 mph N/A   Unknown
11:53 PM 37.4 °F 27.5 °F 3.2 °F 24% 29.81 in 10.0 mi NW 18.4 mph 32.2 mph N/A   Unknown